• In Hungary
  • List of Countries
  • For 7 days
  • Water Temperature
  • Satellite Maps
  • Weather Map
  • News
  • Weather Widgets
  • user-avatar
    Login

    Hourly Weather Baygazino

    Today, 23 May, Wednesday

    Time Temperature Precipitation Wind Pressure Humidity
    00:00 +13°C° 0 mm 2 mps 731 mmHg 87%
    01:00 +13°C° 0 mm 2 mps 731 mmHg 90%
    02:00 +12°C° 0 mm 1 mps 731 mmHg 91%
    03:00 +12°C° 0 mm 1 mps 732 mmHg 91%
    04:00 +12°C° 0 mm 2 mps 731 mmHg 92%
    05:00 +14°C° 0 mm 1 mps 732 mmHg 84%
    06:00 +16°C° 0 mm 1 mps 733 mmHg 77%
    07:00 +19°C° 0 mm 1 mps 733 mmHg 69%
    08:00 +21°C° 0 mm 1 mps 733 mmHg 61%
    09:00 +23°C° 0 mm 1 mps 734 mmHg 53%
    10:00 +26°C° 0 mm 1 mps 734 mmHg 43%
    11:00 +26°C° 0 mm 2 mps 734 mmHg 41%
    12:00 +27°C° 0 mm 2 mps 734 mmHg 38%
    13:00 +28°C° 0 mm 2 mps 734 mmHg 36%
    14:00 +27°C° 0 mm 2 mps 734 mmHg 38%
    15:00 +27°C° 0 mm 3 mps 733 mmHg 41%
    16:00 +27°C° 0 mm 3 mps 733 mmHg 43%
    17:00 +26°C° 0 mm 3 mps 732 mmHg 49%
    18:00 +24°C° 0 mm 3 mps 732 mmHg 56%
    19:00 +23°C° 0 mm 2 mps 732 mmHg 62%
    20:00 +21°C° 0 mm 2 mps 731 mmHg 68%
    21:00 +19°C° 0 mm 2 mps 731 mmHg 74%
    22:00 +17°C° 0 mm 2 mps 731 mmHg 80%
    23:00 +17°C° 0 mm 2 mps 731 mmHg 81%

    Tomorrow, 24 May, Thursday

    Time Temperature Precipitation Wind Pressure Humidity
    00:00 +16°C° 0 mm 2 mps 730 mmHg 82%
    01:00 +16°C° 0 mm 2 mps 730 mmHg 83%
    02:00 +15°C° 0 mm 2 mps 730 mmHg 85%
    03:00 +15°C° 0 mm 2 mps 730 mmHg 87%
    04:00 +14°C° 0 mm 2 mps 730 mmHg 89%
    05:00 +16°C° 0 mm 2 mps 730 mmHg 80%
    06:00 +17°C° 0 mm 3 mps 730 mmHg 72%
    07:00 +19°C° 0 mm 4 mps 729 mmHg 63%
    08:00 +21°C° 0 mm 4 mps 729 mmHg 57%
    09:00 +22°C° 0 mm 4 mps 729 mmHg 50%
    10:00 +25°C° 0 mm 4 mps 729 mmHg 44%
    11:00 +26°C° 0 mm 5 mps 729 mmHg 42%
    12:00 +26°C° 0 mm 5 mps 728 mmHg 40%
    13:00 +27°C° 0 mm 5 mps 728 mmHg 38%
    14:00 +27°C° 0 mm 5 mps 728 mmHg 39%
    15:00 +27°C° 0 mm 5 mps 728 mmHg 40%
    16:00 +27°C° 0 mm 5 mps 727 mmHg 41%
    17:00 +26°C° 0 mm 4 mps 727 mmHg 47%
    18:00 +24°C° 0 mm 3 mps 726 mmHg 53%
    19:00 +22°C° 0 mm 3 mps 726 mmHg 59%
    20:00 +20°C° 0 mm 2 mps 726 mmHg 65%
    21:00 +19°C° 0 mm 2 mps 725 mmHg 71%
    22:00 +18°C° 0 mm 1 mps 725 mmHg 77%
    23:00 +16°C° 0 mm 1 mps 725 mmHg 79%

    Day after tomorrow, 25 May, Friday

    Time Temperature Precipitation Wind Pressure Humidity
    00:00 +16°C° 0 mm 1 mps 724 mmHg 81%
    01:00 +15°C° 0 mm 1 mps 724 mmHg 84%
    02:00 +15°C° 0 mm 1 mps 724 mmHg 85%
    03:00 +14°C° 0 mm 1 mps 723 mmHg 87%
    04:00 +14°C° 0 mm 1 mps 723 mmHg 88%
    05:00 +15°C° 0 mm 1 mps 723 mmHg 82%
    06:00 +18°C° 0 mm 1 mps 722 mmHg 76%
    07:00 +19°C° 0 mm 1 mps 722 mmHg 70%
    08:00 +20°C° 0 mm 2 mps 722 mmHg 63%
    09:00 +21°C° 0 mm 3 mps 721 mmHg 57%
    10:00 +22°C° 0 mm 4 mps 721 mmHg 50%
    11:00 +22°C° 0 mm 4 mps 721 mmHg 50%
    12:00 +23°C° 0 mm 4 mps 721 mmHg 50%
    13:00 +23°C° 0 mm 5 mps 720 mmHg 49%
    14:00 +22°C° 0.3 mm 4 mps 720 mmHg 55%
    15:00 +21°C° 0.3 mm 4 mps 720 mmHg 61%
    16:00 +20°C° 0.3 mm 3 mps 719 mmHg 67%
    17:00 +18°C° 0.4 mm 3 mps 719 mmHg 74%
    18:00 +17°C° 0.4 mm 3 mps 719 mmHg 81%
    19:00 +14°C° 0.4 mm 3 mps 718 mmHg 88%
    20:00 +13°C° 1.2 mm 4 mps 718 mmHg 90%
    21:00 +12°C° 1.2 mm 4 mps 718 mmHg 92%
    22:00 +10°C° 1.2 mm 5 mps 718 mmHg 93%
    23:00 +9°C° 3 mm 5 mps 717 mmHg 93%

    26 May, Saturday

    Time Temperature Precipitation Wind Pressure Humidity
    00:00 +8°C° 3 mm 6 mps 717 mmHg 93%
    01:00 +7°C° 3 mm 6 mps 717 mmHg 92%
    02:00 +7°C° 0.7 mm 6 mps 718 mmHg 92%
    03:00 +5°C° 0.7 mm 7 mps 718 mmHg 91%
    04:00 +5°C° 0.7 mm 7 mps 718 mmHg 90%
    05:00 +5°C° 0.4 mm 7 mps 719 mmHg 89%
    06:00 +4°C° 0.4 mm 7 mps 720 mmHg 89%
    07:00 +4°C° 0.4 mm 8 mps 720 mmHg 88%
    08:00 +4°C° 0.5 mm 8 mps 721 mmHg 87%
    09:00 +4°C° 0.5 mm 8 mps 722 mmHg 85%
    10:00 +4°C° 0.5 mm 8 mps 722 mmHg 84%
    11:00 +4°C° 0.4 mm 8 mps 723 mmHg 81%
    12:00 +4°C° 0.4 mm 8 mps 723 mmHg 77%
    13:00 +5°C° 0.4 mm 8 mps 724 mmHg 74%
    14:00 +5°C° 0.2 mm 7 mps 724 mmHg 72%
    15:00 +5°C° 0.2 mm 7 mps 724 mmHg 70%
    16:00 +6°C° 0.2 mm 7 mps 724 mmHg 67%
    17:00 +6°C° 0 mm 7 mps 725 mmHg 64%
    18:00 +6°C° 0 mm 7 mps 725 mmHg 61%
    19:00 +7°C° 0 mm 6 mps 725 mmHg 59%
    20:00 +7°C° 0 mm 6 mps 725 mmHg 61%
    21:00 +5°C° 0 mm 6 mps 725 mmHg 63%
    22:00 +5°C° 0 mm 6 mps 725 mmHg 65%
    23:00 +4°C° 0.1 mm 6 mps 725 mmHg 65%

    27 May, Sunday

    Time Temperature Precipitation Wind Pressure Humidity
    00:00 +4°C° 0.1 mm 6 mps 725 mmHg 65%
    01:00 +4°C° 0.1 mm 6 mps 725 mmHg 65%
    02:00 +4°C° 0.4 mm 7 mps 725 mmHg 66%
    03:00 +3°C° 0.4 mm 7 mps 724 mmHg 66%
    04:00 +3°C° 0.4 mm 7 mps 724 mmHg 67%
    05:00 +3°C° 0.2 mm 7 mps 724 mmHg 65%
    06:00 +4°C° 0.2 mm 8 mps 724 mmHg 63%
    07:00 +4°C° 0.2 mm 8 mps 724 mmHg 61%
    08:00 +5°C° 0 mm 8 mps 723 mmHg 56%
    09:00 +6°C° 0 mm 8 mps 723 mmHg 50%
    10:00 +7°C° 0 mm 9 mps 723 mmHg 45%
    11:00 +8°C° 0 mm 9 mps 723 mmHg 43%
    12:00 +9°C° 0 mm 8 mps 722 mmHg 42%
    13:00 +10°C° 0 mm 8 mps 722 mmHg 40%
    14:00 +11°C° 0 mm 8 mps 721 mmHg 41%
    15:00 +11°C° 0 mm 8 mps 721 mmHg 41%
    16:00 +12°C° 0 mm 7 mps 720 mmHg 41%
    17:00 +11°C° 0 mm 7 mps 720 mmHg 46%
    18:00 +11°C° 0 mm 6 mps 720 mmHg 50%
    19:00 +10°C° 0 mm 5 mps 720 mmHg 55%
    20:00 +9°C° 0 mm 5 mps 720 mmHg 58%
    21:00 +8°C° 0 mm 4 mps 719 mmHg 61%
    22:00 +8°C° 0 mm 4 mps 719 mmHg 64%
    23:00 +8°C° 0 mm 3 mps 719 mmHg 67%

    28 May, Monday

    Time Temperature Precipitation Wind Pressure Humidity
    00:00 +8°C° 0 mm 3 mps 718 mmHg 69%
    01:00 +8°C° 0 mm 3 mps 718 mmHg 72%
    02:00 +7°C° 0 mm 2 mps 718 mmHg 76%
    03:00 +7°C° 0 mm 2 mps 717 mmHg 80%
    04:00 +6°C° 0 mm 2 mps 717 mmHg 84%
    05:00 +9°C° 0 mm 2 mps 716 mmHg 77%
    06:00 +12°C° 0 mm 2 mps 716 mmHg 70%
    07:00 +13°C° 0 mm 3 mps 716 mmHg 63%
    08:00 +15°C° 0.1 mm 4 mps 715 mmHg 62%
    09:00 +16°C° 0.1 mm 5 mps 714 mmHg 62%
    10:00 +17°C° 0.1 mm 6 mps 714 mmHg 61%
    11:00 +16°C° 0.5 mm 6 mps 713 mmHg 68%
    12:00 +14°C° 0.5 mm 7 mps 713 mmHg 75%
    13:00 +11°C° 0.5 mm 7 mps 713 mmHg 83%
    14:00 +10°C° 0 mm 7 mps 713 mmHg 80%
    15:00 +9°C° 0 mm 7 mps 713 mmHg 77%
    16:00 +8°C° 0 mm 7 mps 713 mmHg 74%
    17:00 +9°C° 0 mm 6 mps 713 mmHg 74%
    18:00 +9°C° 0 mm 5 mps 714 mmHg 73%
    19:00 +9°C° 0 mm 5 mps 714 mmHg 72%
    20:00 +8°C° 0 mm 4 mps 714 mmHg 77%
    21:00 +6°C° 0 mm 4 mps 714 mmHg 81%
    22:00 +5°C° 0 mm 4 mps 714 mmHg 86%
    23:00 +4°C° 0 mm 4 mps 713 mmHg 88%
    Show more